Location: Helensbirgh
(56.0153°N, 4.7348°W)
Time: 02:30:29
(UTC+00:00)

N. Korean satellite - Pass Details

Date: 26 October 2019
Orbit: 456 x 506 km, 97.2° (Epoch: 21 November)

Event Time Altitude Azimuth Distance (km) Brightness Sun altitude
Rises 06:19:42 0° 25° (NNE) 2,577 10.6 -16.2°
Reaches altitude 10° 06:22:17 10° 45° (NE) 1,699 10.0 -15.9°
Maximum altitude 06:24:52 18° 90° (E) 1,274 9.8 -15.5°
Drops below altitude 10° 06:27:28 10° 135° (SE) 1,705 10.0 -15.2°
Sets 06:30:04 0° 155° (SSE) 2,590 10.6 -14.8°
